VXP330 KHVN-TJSJ

Flight info

Callsign VXP330
Flight time N/A
Altitude 35000
Route BEADS DCT SPDEY Y490 OHRYN/N0469F340 Y490 BEHHR/M080F340 Y490 ROLLE DCT ATUGI/M080F350 L454 SEBIS/M080F370 L454 LUCTI/N0466F370 L454 MNDEZ Y292 FIPEK Y355 PLING RTE7 SAALR
Aircraft B738/M-SDE2E3FGHIRWXY/LB1

Departure

Time 2026-05-03 21:22
Airport Tweed New Haven Airport (KHVN)

Arrival

Time N/A
Airport Luis Munoz Marin International Airport (TJSJ)
Time Latitude Longitude Altitude Speed Heading
2026-05-03 21:00 41.26938 -72.88963 28 ft 0 kts 269°
2026-05-03 21:15 41.26938 -72.88945 28 ft 2 kts 268°
2026-05-03 21:16 41.26939 -72.88924 28 ft 2 kts 268°
2026-05-03 21:16 41.26939 -72.88908 27 ft 1 kts 287°
2026-05-03 21:16 41.26934 -72.88901 27 ft 1 kts 345°
2026-05-03 21:16 41.26922 -72.88902 27 ft 1 kts 20°
2026-05-03 21:17 41.26916 -72.88905 27 ft 1 kts
2026-05-03 21:17 41.26913 -72.88905 27 ft 0 kts
2026-05-03 21:20 41.26914 -72.88905 27 ft 0 kts
2026-05-03 21:20 41.26922 -72.88904 27 ft 2 kts
2026-05-03 21:20 41.26946 -72.88903 27 ft 4 kts
2026-05-03 21:20 41.26982 -72.88898 28 ft 5 kts 11°
2026-05-03 21:21 41.27025 -72.88879 28 ft 7 kts 34°
2026-05-03 21:21 41.27074 -72.88827 28 ft 10 kts 38°
2026-05-03 21:21 41.27118 -72.88772 28 ft 6 kts 68°
2026-05-03 21:21 41.27100 -72.88725 26 ft 7 kts 173°
2026-05-03 21:22 41.26934 -72.88735 26 ft 65 kts 185°
2026-05-03 21:22 41.26154 -72.88793 27 ft 155 kts 183°
2026-05-03 21:22 41.24884 -72.88896 366 ft 203 kts 188°
2026-05-03 21:22 41.23452 -72.89191 1116 ft 206 kts 197°
2026-05-03 21:23 41.22023 -72.89468 1801 ft 218 kts 193°
2026-05-03 21:23 41.20413 -72.89568 1973 ft 241 kts 184°
2026-05-03 21:23 41.18663 -72.89494 1917 ft 262 kts 179°
2026-05-03 21:23 41.16863 -72.88773 2654 ft 283 kts 155°
2026-05-03 21:24 41.15187 -72.87397 3532 ft 280 kts 144°
2026-05-03 21:24 41.13685 -72.85681 3742 ft 286 kts 140°
2026-05-03 21:24 41.12061 -72.84129 3884 ft 292 kts 149°
2026-05-03 21:24 41.10289 -72.82778 4262 ft 290 kts 152°
2026-05-03 21:25 41.08543 -72.81493 4910 ft 280 kts 152°
2026-05-03 21:25 41.06876 -72.80241 5533 ft 270 kts 151°
2026-05-03 21:25 41.05261 -72.79002 5968 ft 269 kts 151°
2026-05-03 21:25 41.03652 -72.77744 6316 ft 271 kts 150°
2026-05-03 21:26 41.02011 -72.76454 6675 ft 273 kts 150°
2026-05-03 21:26 41.00400 -72.75182 7034 ft 274 kts 150°
2026-05-03 21:26 40.98614 -72.74120 7050 ft 286 kts 169°
2026-05-03 21:26 40.96586 -72.73927 6668 ft 307 kts 192°
2026-05-03 21:27 40.94474 -72.74808 6163 ft 327 kts 213°
2026-05-03 21:27 40.92659 -72.76698 5665 ft 343 kts 232°
2026-05-03 21:27 40.91369 -72.79398 5168 ft 357 kts 251°
2026-05-03 21:27 40.90847 -72.82613 5171 ft 356 kts 270°
2026-05-03 21:28 40.91139 -72.85834 5282 ft 351 kts 288°
2026-05-03 21:28 40.92175 -72.88676 5255 ft 334 kts 305°
2026-05-03 21:28 40.93820 -72.90768 4877 ft 323 kts 326°
2026-05-03 21:28 40.95873 -72.91827 4614 ft 315 kts 347°
2026-05-03 21:29 40.98069 -72.91931 4389 ft 309 kts 359°
2026-05-03 21:29 41.00182 -72.91697 4005 ft 306 kts
2026-05-03 21:29 41.02262 -72.91386 3894 ft 294 kts
2026-05-03 21:29 41.04272 -72.91059 3886 ft 280 kts
2026-05-03 21:30 41.06154 -72.90743 3879 ft 269 kts
2026-05-03 21:30 41.08010 -72.90425 3626 ft 268 kts
2026-05-03 21:30 41.09856 -72.90138 3237 ft 261 kts
2026-05-03 21:30 41.11593 -72.89906 2911 ft 242 kts
2026-05-03 21:31 41.13211 -72.89690 2882 ft 218 kts 360°
2026-05-03 21:31 41.14633 -72.89478 2899 ft 195 kts 360°
2026-05-03 21:31 41.15937 -72.89271 2856 ft 179 kts 360°
2026-05-03 21:31 41.17154 -72.89069 2580 ft 178 kts 359°
2026-05-03 21:32 41.18382 -72.88911 2369 ft 170 kts 356°
2026-05-03 21:32 41.19532 -72.88872 2184 ft 163 kts 348°
2026-05-03 21:32 41.20664 -72.89091 1754 ft 166 kts 344°
2026-05-03 21:32 41.21835 -72.89135 1406 ft 168 kts 360°
2026-05-03 21:33 41.23006 -72.88999 951 ft 171 kts 355°
2026-05-03 21:33 41.24193 -72.88930 439 ft 168 kts
2026-05-03 21:33 41.25296 -72.88838 108 ft 153 kts 358°
2026-05-03 21:33 41.26275 -72.88792 28 ft 116 kts 10°
2026-05-03 21:34 41.26610 -72.88763 23 ft 0 kts